PAL494 RPLL-RPMD

Flight info

Callsign PAL494
Flight time 1h 25m
Altitude 41000
Route IPATA2R IPATA B462 MASBA W9A BN W9 RIMAR RIMAR2P
Aircraft A359/H-SDE2E3GHIJ3J4J5LM1ORWXY/LB1D1

Departure

Time 2026-05-05 06:21
Airport Ninoy Aquino International Airport (RPLL)

Arrival

Time 2026-05-05 07:46
Airport Francisco Bangoy International Airport (RPMD)
Time Latitude Longitude Altitude Speed Heading
2026-05-05 05:54 14.51075 121.01369 75 ft 0 kts 221°
2026-05-05 06:06 14.51076 121.01369 75 ft 0 kts 221°
2026-05-05 06:07 14.51088 121.01379 64 ft 2 kts 218°
2026-05-05 06:07 14.51101 121.01389 72 ft 2 kts 213°
2026-05-05 06:08 14.51116 121.01398 64 ft 2 kts 204°
2026-05-05 06:08 14.51132 121.01403 66 ft 2 kts 180°
2026-05-05 06:08 14.51147 121.01399 64 ft 2 kts 142°
2026-05-05 06:08 14.51155 121.01392 64 ft 1 kts 133°
2026-05-05 06:13 14.51121 121.01429 64 ft 8 kts 134°
2026-05-05 06:13 14.51076 121.01477 64 ft 11 kts 134°
2026-05-05 06:13 14.51018 121.01537 69 ft 13 kts 135°
2026-05-05 06:14 14.50979 121.01577 65 ft 10 kts 135°
2026-05-05 06:14 14.50927 121.01632 65 ft 10 kts 135°
2026-05-05 06:14 14.50847 121.01629 67 ft 10 kts 223°
2026-05-05 06:14 14.50816 121.01585 66 ft 12 kts 239°
2026-05-05 06:15 14.50768 121.01501 67 ft 15 kts 239°
2026-05-05 06:15 14.50711 121.01398 64 ft 18 kts 240°
2026-05-05 06:15 14.50646 121.01282 68 ft 20 kts 240°
2026-05-05 06:15 14.50574 121.01149 68 ft 22 kts 240°
2026-05-05 06:16 14.50492 121.01003 67 ft 25 kts 240°
2026-05-05 06:16 14.50401 121.00842 66 ft 27 kts 240°
2026-05-05 06:16 14.50303 121.00665 64 ft 29 kts 240°
2026-05-05 06:16 14.50199 121.00475 66 ft 30 kts 240°
2026-05-05 06:17 14.50092 121.00284 68 ft 32 kts 240°
2026-05-05 06:17 14.49986 121.00094 67 ft 25 kts 240°
2026-05-05 06:17 14.49925 120.99986 67 ft 8 kts 234°
2026-05-05 06:17 14.49889 120.99969 67 ft 0 kts 181°
2026-05-05 06:19 14.49855 120.99974 70 ft 8 kts 164°
2026-05-05 06:19 14.49808 121.00011 67 ft 9 kts 122°
2026-05-05 06:19 14.49820 121.00071 69 ft 10 kts 58°
2026-05-05 06:19 14.49829 121.00087 72 ft 0 kts 58°
2026-05-05 06:20 14.49830 121.00088 73 ft 4 kts 58°
2026-05-05 06:20 14.49990 121.00375 65 ft 86 kts 60°
2026-05-05 06:21 14.50398 121.01112 68 ft 151 kts 59°
2026-05-05 06:21 14.51009 121.02141 506 ft 176 kts 60°
2026-05-05 06:21 14.51642 121.03284 1202 ft 193 kts 63°
2026-05-05 06:21 14.52293 121.04588 1827 ft 215 kts 65°
2026-05-05 06:22 14.53062 121.06026 2384 ft 240 kts 61°
2026-05-05 06:22 14.53919 121.07533 3214 ft 246 kts 60°
2026-05-05 06:22 14.54808 121.09079 4054 ft 254 kts 61°
2026-05-05 06:22 14.55702 121.10665 4949 ft 258 kts 61°
2026-05-05 06:23 14.56610 121.12282 5805 ft 263 kts 61°
2026-05-05 06:23 14.57310 121.14031 6668 ft 265 kts 78°
2026-05-05 06:23 14.57593 121.15920 7389 ft 268 kts 84°
2026-05-05 06:23 14.57610 121.17855 7815 ft 272 kts 96°
2026-05-05 06:24 14.57072 121.19720 8137 ft 273 kts 117°
2026-05-05 06:24 14.55865 121.21251 8630 ft 278 kts 136°
2026-05-05 06:24 14.54409 121.22539 9541 ft 280 kts 138°
2026-05-05 06:24 14.52907 121.23841 10391 ft 286 kts 138°
2026-05-05 06:25 14.51329 121.25213 10826 ft 307 kts 138°
2026-05-05 06:25 14.49642 121.26682 11215 ft 326 kts 138°
2026-05-05 06:25 14.47878 121.28219 11802 ft 337 kts 139°
2026-05-05 06:25 14.46067 121.29794 12476 ft 343 kts 139°
2026-05-05 06:26 14.44201 121.31415 13172 ft 349 kts 139°
2026-05-05 06:26 14.42330 121.33041 13840 ft 354 kts 139°
2026-05-05 06:26 14.40427 121.34695 14460 ft 359 kts 139°
2026-05-05 06:26 14.38506 121.36361 15088 ft 363 kts 139°
2026-05-05 06:27 14.36566 121.38047 15718 ft 366 kts 139°
2026-05-05 06:27 14.32624 121.41471 16927 ft 375 kts 140°
2026-05-05 06:27 14.30643 121.43190 17513 ft 379 kts 140°
2026-05-05 06:28 14.28615 121.44949 18125 ft 383 kts 140°
2026-05-05 06:28 14.26568 121.46725 18637 ft 386 kts 140°
2026-05-05 06:28 14.24506 121.48513 19173 ft 390 kts 140°
2026-05-05 06:28 14.22425 121.50318 19702 ft 393 kts 140°
2026-05-05 06:29 14.20318 121.52145 20265 ft 395 kts 140°
2026-05-05 06:29 14.18208 121.53973 20827 ft 398 kts 140°
2026-05-05 06:29 14.16079 121.55818 21409 ft 401 kts 140°
2026-05-05 06:29 14.13936 121.57675 21952 ft 404 kts 140°
2026-05-05 06:30 14.11776 121.59545 22519 ft 407 kts 141°
2026-05-05 06:30 14.09599 121.61429 23082 ft 410 kts 141°
2026-05-05 06:30 14.07403 121.63329 23607 ft 413 kts 141°
2026-05-05 06:30 14.05196 121.65240 24042 ft 417 kts 141°
2026-05-05 06:31 14.02961 121.67175 24496 ft 421 kts 141°
2026-05-05 06:31 14.00707 121.69123 24993 ft 424 kts 141°
2026-05-05 06:31 13.98465 121.71060 25474 ft 427 kts 141°
2026-05-05 06:31 13.96181 121.73035 25976 ft 431 kts 141°
2026-05-05 06:32 13.93871 121.75032 26492 ft 434 kts 141°
2026-05-05 06:32 13.91541 121.77045 26996 ft 438 kts 141°
2026-05-05 06:32 13.89195 121.79072 27495 ft 442 kts 141°
2026-05-05 06:32 13.86870 121.81158 28000 ft 446 kts 137°
2026-05-05 06:33 13.84729 121.83496 28473 ft 450 kts 132°
2026-05-05 06:33 13.82700 121.85916 28951 ft 454 kts 131°
2026-05-05 06:33 13.80669 121.88427 29437 ft 458 kts 130°
2026-05-05 06:33 13.78610 121.91002 29895 ft 462 kts 130°
2026-05-05 06:34 13.76585 121.93532 30257 ft 466 kts 130°
2026-05-05 06:34 13.74508 121.96108 30634 ft 470 kts 130°
2026-05-05 06:34 13.72408 121.98697 31014 ft 473 kts 131°
2026-05-05 06:34 13.70287 122.01299 31378 ft 476 kts 131°
2026-05-05 06:35 13.68145 122.03921 31758 ft 480 kts 131°
2026-05-05 06:35 13.65989 122.06557 32119 ft 483 kts 131°
2026-05-05 06:35 13.63820 122.09209 32482 ft 486 kts 131°
2026-05-05 06:35 13.61641 122.11874 32859 ft 488 kts 131°
2026-05-05 06:36 13.59445 122.14557 33211 ft 491 kts 131°
2026-05-05 06:36 13.57244 122.17247 33561 ft 494 kts 131°
2026-05-05 06:36 13.55024 122.19958 33897 ft 496 kts 131°
2026-05-05 06:36 13.52794 122.22681 34170 ft 499 kts 131°
2026-05-05 06:37 13.50561 122.25409 34463 ft 500 kts 131°
2026-05-05 06:37 13.48316 122.28149 34849 ft 499 kts 131°
2026-05-05 06:37 13.46079 122.30879 35225 ft 499 kts 131°
2026-05-05 06:37 13.43846 122.33603 35618 ft 498 kts 131°
2026-05-05 06:38 13.41616 122.36322 35980 ft 498 kts 131°
2026-05-05 06:38 13.39381 122.39047 36347 ft 498 kts 131°
2026-05-05 06:38 13.37179 122.41731 36708 ft 498 kts 131°
2026-05-05 06:38 13.34952 122.44444 37071 ft 497 kts 131°
2026-05-05 06:39 13.32722 122.47158 37413 ft 497 kts 131°
2026-05-05 06:39 13.30493 122.49872 37777 ft 496 kts 131°
2026-05-05 06:39 13.28266 122.52583 38117 ft 496 kts 132°
2026-05-05 06:39 13.26041 122.55292 38480 ft 495 kts 132°
2026-05-05 06:40 13.23821 122.57992 38789 ft 494 kts 132°
2026-05-05 06:40 13.21603 122.60689 39098 ft 493 kts 132°
2026-05-05 06:40 13.19396 122.63372 39396 ft 492 kts 132°
2026-05-05 06:40 13.17191 122.66050 39693 ft 490 kts 132°
2026-05-05 06:41 13.14992 122.68722 39980 ft 489 kts 132°
2026-05-05 06:41 13.12825 122.71353 40253 ft 488 kts 132°
2026-05-05 06:41 13.10635 122.74011 40522 ft 487 kts 132°
2026-05-05 06:41 13.08448 122.76665 40767 ft 486 kts 132°
2026-05-05 06:42 13.06258 122.79322 40853 ft 487 kts 132°
2026-05-05 06:42 13.01895 122.84614 40859 ft 485 kts 132°
2026-05-05 06:43 12.97539 122.89893 40856 ft 485 kts 132°
2026-05-05 06:43 12.93183 122.95169 40854 ft 484 kts 132°
2026-05-05 06:44 12.88828 123.00441 40850 ft 484 kts 132°
2026-05-05 06:44 12.84479 123.05703 40852 ft 484 kts 132°
2026-05-05 06:45 12.80158 123.10928 40853 ft 483 kts 132°
2026-05-05 06:45 12.75810 123.16182 40851 ft 483 kts 132°
2026-05-05 06:46 12.71459 123.21436 40855 ft 483 kts 132°
2026-05-05 06:46 12.67110 123.26687 40856 ft 483 kts 132°
2026-05-05 06:47 12.62760 123.31934 40852 ft 483 kts 132°
2026-05-05 06:47 12.58442 123.37140 40846 ft 483 kts 132°
2026-05-05 06:48 12.54094 123.42381 40848 ft 482 kts 132°
2026-05-05 06:48 12.49743 123.47620 40848 ft 483 kts 132°
2026-05-05 06:49 12.45388 123.52861 40846 ft 483 kts 132°
2026-05-05 06:49 12.41034 123.58098 40846 ft 483 kts 132°
2026-05-05 06:50 12.36328 123.62979 40850 ft 481 kts 144°
2026-05-05 06:50 12.30706 123.66549 40846 ft 479 kts 153°
2026-05-05 06:51 12.24816 123.69800 40850 ft 480 kts 154°
2026-05-05 06:51 12.18913 123.73007 40852 ft 480 kts 153°
2026-05-05 06:52 12.13046 123.76221 40847 ft 481 kts 153°
2026-05-05 06:52 12.07149 123.79468 40847 ft 481 kts 153°
2026-05-05 06:53 12.01256 123.82717 40847 ft 481 kts 153°
2026-05-05 06:53 11.95361 123.85965 40849 ft 481 kts 153°
2026-05-05 06:54 11.89471 123.89207 40841 ft 480 kts 153°
2026-05-05 06:54 11.83626 123.92422 40842 ft 480 kts 153°
2026-05-05 06:55 11.77746 123.95655 40843 ft 480 kts 153°
2026-05-05 06:55 11.71859 123.98891 40846 ft 479 kts 153°
2026-05-05 06:56 11.65983 124.02119 40842 ft 479 kts 153°
2026-05-05 06:56 11.60128 124.05333 40842 ft 478 kts 153°
2026-05-05 06:57 11.54264 124.08551 40844 ft 478 kts 153°
2026-05-05 06:57 11.48408 124.11763 40845 ft 477 kts 153°
2026-05-05 06:58 11.42593 124.14951 40846 ft 477 kts 153°
2026-05-05 06:58 11.36751 124.18152 40841 ft 477 kts 153°
2026-05-05 06:59 11.30909 124.21352 40844 ft 477 kts 153°
2026-05-05 06:59 11.25063 124.24552 40841 ft 476 kts 152°
2026-05-05 07:00 11.19226 124.27746 40844 ft 476 kts 152°
2026-05-05 07:00 11.14360 124.30409 40840 ft 476 kts 152°
2026-05-05 07:01 11.08523 124.33599 40836 ft 476 kts 152°
2026-05-05 07:01 11.02679 124.36787 40841 ft 476 kts 153°
2026-05-05 07:02 10.96819 124.39935 40843 ft 476 kts 153°
2026-05-05 07:02 10.90953 124.43085 40836 ft 476 kts 153°
2026-05-05 07:03 10.85089 124.46241 40836 ft 476 kts 153°
2026-05-05 07:03 10.79270 124.49375 40838 ft 476 kts 152°
2026-05-05 07:04 10.73412 124.52545 40840 ft 476 kts 152°
2026-05-05 07:04 10.67565 124.55721 40837 ft 476 kts 152°
2026-05-05 07:05 10.61711 124.58899 40834 ft 477 kts 152°
2026-05-05 07:05 10.55857 124.62075 40838 ft 477 kts 152°
2026-05-05 07:06 10.49991 124.65256 40836 ft 477 kts 152°
2026-05-05 07:06 10.44172 124.68409 40836 ft 477 kts 152°
2026-05-05 07:07 10.38314 124.71584 40836 ft 478 kts 152°
2026-05-05 07:07 10.32448 124.74760 40838 ft 477 kts 152°
2026-05-05 07:08 10.26582 124.77936 40836 ft 478 kts 152°
2026-05-05 07:08 10.20712 124.81112 40834 ft 478 kts 152°
2026-05-05 07:09 10.14837 124.84290 40831 ft 478 kts 152°
2026-05-05 07:09 10.08994 124.87449 40828 ft 478 kts 152°
2026-05-05 07:10 10.03119 124.90624 40829 ft 478 kts 152°
2026-05-05 07:10 9.97235 124.93803 40827 ft 478 kts 152°
2026-05-05 07:11 9.91361 124.96975 40830 ft 478 kts 152°
2026-05-05 07:11 9.85485 125.00147 40825 ft 478 kts 152°
2026-05-05 07:12 9.79608 125.03318 40822 ft 478 kts 152°
2026-05-05 07:12 9.73742 125.06485 40826 ft 478 kts 152°
2026-05-05 07:13 9.67860 125.09652 40825 ft 478 kts 152°
2026-05-05 07:13 9.61984 125.12814 40820 ft 478 kts 152°
2026-05-05 07:14 9.56112 125.15964 40820 ft 478 kts 152°
2026-05-05 07:14 9.50222 125.19100 40822 ft 478 kts 152°
2026-05-05 07:15 9.44349 125.22225 40813 ft 478 kts 152°
2026-05-05 07:15 9.38504 125.25338 40815 ft 478 kts 152°
2026-05-05 07:16 9.32615 125.28475 40815 ft 478 kts 152°
2026-05-05 07:16 9.29668 125.30044 40611 ft 479 kts 152°
2026-05-05 07:16 9.26709 125.31620 40356 ft 481 kts 152°
2026-05-05 07:16 9.23745 125.33198 39761 ft 481 kts 152°
2026-05-05 07:17 9.20771 125.34782 38967 ft 485 kts 152°
2026-05-05 07:17 9.17766 125.36381 38191 ft 488 kts 152°
2026-05-05 07:17 9.14767 125.37976 37367 ft 491 kts 152°
2026-05-05 07:17 9.11746 125.39583 36652 ft 490 kts 152°
2026-05-05 07:18 9.08710 125.41197 35976 ft 490 kts 152°
2026-05-05 07:18 9.05732 125.42780 35289 ft 491 kts 152°
2026-05-05 07:18 9.02706 125.44388 34567 ft 492 kts 152°
2026-05-05 07:18 8.99670 125.46002 33788 ft 494 kts 152°
2026-05-05 07:19 8.96569 125.47518 32996 ft 494 kts 159°
2026-05-05 07:19 8.93462 125.48421 32428 ft 491 kts 170°
2026-05-05 07:19 8.90092 125.48937 31863 ft 487 kts 172°
2026-05-05 07:19 8.86739 125.49329 31289 ft 484 kts 174°
2026-05-05 07:20 8.83402 125.49661 30731 ft 481 kts 174°
2026-05-05 07:20 8.79984 125.49981 30147 ft 478 kts 174°
2026-05-05 07:20 8.76681 125.50289 29536 ft 476 kts 174°
2026-05-05 07:20 8.73411 125.50601 28959 ft 472 kts 173°
2026-05-05 07:21 8.70204 125.50917 28408 ft 467 kts 173°
2026-05-05 07:21 8.66987 125.51239 27873 ft 463 kts 173°
2026-05-05 07:21 8.63785 125.51562 27314 ft 459 kts 173°
2026-05-05 07:21 8.60618 125.51885 26770 ft 455 kts 173°
2026-05-05 07:22 8.57471 125.52205 26225 ft 452 kts 173°
2026-05-05 07:22 8.54362 125.52521 25680 ft 448 kts 173°
2026-05-05 07:22 8.51264 125.52837 25106 ft 446 kts 172°
2026-05-05 07:22 8.48182 125.53122 24557 ft 444 kts 173°
2026-05-05 07:23 8.45115 125.53388 24000 ft 441 kts 173°
2026-05-05 07:23 8.42060 125.53654 23449 ft 438 kts 173°
2026-05-05 07:23 8.39176 125.53909 22842 ft 436 kts 173°
2026-05-05 07:23 8.36175 125.54176 22276 ft 431 kts 173°
2026-05-05 07:24 8.33206 125.54441 21720 ft 426 kts 173°
2026-05-05 07:24 8.30266 125.54703 21155 ft 422 kts 173°
2026-05-05 07:24 8.27351 125.54964 20619 ft 418 kts 173°
2026-05-05 07:24 8.24461 125.55224 20062 ft 414 kts 173°
2026-05-05 07:25 8.21599 125.55479 19516 ft 411 kts 173°
2026-05-05 07:25 8.18758 125.55734 18967 ft 408 kts 173°
2026-05-05 07:25 8.15938 125.55984 18423 ft 405 kts 173°
2026-05-05 07:25 8.13140 125.56235 17849 ft 402 kts 173°
2026-05-05 07:26 8.10369 125.56485 17280 ft 398 kts 173°
2026-05-05 07:26 8.07626 125.56730 16745 ft 393 kts 173°
2026-05-05 07:26 8.04915 125.56973 16216 ft 389 kts 173°
2026-05-05 07:26 8.02247 125.57210 15900 ft 381 kts 173°
2026-05-05 07:27 7.99660 125.57441 15618 ft 377 kts 173°
2026-05-05 07:27 7.97040 125.57708 14787 ft 381 kts 170°
2026-05-05 07:27 7.94426 125.58219 14106 ft 382 kts 166°
2026-05-05 07:27 7.91841 125.58804 13538 ft 379 kts 165°
2026-05-05 07:28 7.89287 125.59381 12987 ft 374 kts 166°
2026-05-05 07:28 7.86764 125.59948 12466 ft 368 kts 166°
2026-05-05 07:28 7.84285 125.60505 12076 ft 360 kts 166°
2026-05-05 07:28 7.81861 125.61048 11653 ft 355 kts 166°
2026-05-05 07:29 7.79461 125.61589 11155 ft 352 kts 166°
2026-05-05 07:29 7.77072 125.62123 10668 ft 351 kts 166°
2026-05-05 07:29 7.74711 125.62652 10372 ft 342 kts 166°
2026-05-05 07:29 7.72434 125.63160 10231 ft 327 kts 166°
2026-05-05 07:30 7.70251 125.63650 10124 ft 314 kts 166°
2026-05-05 07:30 7.66132 125.64571 9728 ft 297 kts 166°
2026-05-05 07:30 7.64108 125.65024 9347 ft 299 kts 166°
2026-05-05 07:31 7.62102 125.65474 9012 ft 299 kts 166°
2026-05-05 07:31 7.60052 125.65936 8653 ft 298 kts 166°
2026-05-05 07:31 7.58063 125.66384 8302 ft 296 kts 166°
2026-05-05 07:31 7.56053 125.66832 7971 ft 295 kts 166°
2026-05-05 07:32 7.54056 125.67275 7625 ft 293 kts 166°
2026-05-05 07:32 7.52063 125.67721 7287 ft 292 kts 166°
2026-05-05 07:32 7.50077 125.68164 6952 ft 291 kts 167°
2026-05-05 07:32 7.48102 125.68601 6620 ft 290 kts 166°
2026-05-05 07:33 7.46201 125.69027 6456 ft 283 kts 167°
2026-05-05 07:33 7.44305 125.69449 6343 ft 272 kts 166°
2026-05-05 07:33 7.42483 125.69855 6211 ft 266 kts 167°
2026-05-05 07:33 7.40678 125.70256 6098 ft 266 kts 166°
2026-05-05 07:34 7.38867 125.70661 5973 ft 265 kts 166°
2026-05-05 07:34 7.37083 125.71061 5846 ft 266 kts 167°
2026-05-05 07:34 7.35277 125.71465 5667 ft 266 kts 166°
2026-05-05 07:34 7.33480 125.71887 5458 ft 264 kts 163°
2026-05-05 07:35 7.31956 125.72863 5323 ft 261 kts 127°
2026-05-05 07:35 7.31248 125.74487 5196 ft 254 kts 93°
2026-05-05 07:35 7.31588 125.76180 5093 ft 247 kts 58°
2026-05-05 07:35 7.32760 125.77419 5043 ft 245 kts 34°
2026-05-05 07:36 7.34301 125.78130 4989 ft 246 kts 13°
2026-05-05 07:36 7.36002 125.78188 4932 ft 246 kts 349°
2026-05-05 07:36 7.37557 125.77491 4855 ft 247 kts 324°
2026-05-05 07:36 7.38850 125.76347 4805 ft 249 kts 317°
2026-05-05 07:37 7.40106 125.75132 4755 ft 250 kts 318°
2026-05-05 07:37 7.41377 125.73941 4700 ft 249 kts 319°
2026-05-05 07:37 7.42648 125.72759 4653 ft 249 kts 317°
2026-05-05 07:37 7.43673 125.71351 4578 ft 251 kts 296°
2026-05-05 07:38 7.43956 125.69623 4509 ft 256 kts 265°
2026-05-05 07:38 7.43346 125.67943 4449 ft 259 kts 236°
2026-05-05 07:38 7.41995 125.66761 4392 ft 261 kts 206°
2026-05-05 07:38 7.40234 125.66393 4332 ft 261 kts 176°
2026-05-05 07:39 7.38562 125.66919 4269 ft 250 kts 146°
2026-05-05 07:39 7.37242 125.67992 4195 ft 239 kts 135°
2026-05-05 07:39 7.36434 125.68756 4157 ft 234 kts 134°
2026-05-05 07:39 7.34910 125.70204 4102 ft 220 kts 134°
2026-05-05 07:40 7.33829 125.71228 4051 ft 206 kts 135°
2026-05-05 07:40 7.32791 125.72166 3998 ft 194 kts 137°
2026-05-05 07:40 7.31795 125.73027 3994 ft 186 kts 137°
2026-05-05 07:40 7.30812 125.73870 3990 ft 184 kts 137°
2026-05-05 07:41 7.29842 125.74713 3977 ft 185 kts 137°
2026-05-05 07:41 7.29193 125.75275 3937 ft 184 kts 136°
2026-05-05 07:41 7.28221 125.76116 3891 ft 183 kts 137°
2026-05-05 07:41 7.27240 125.76943 3832 ft 184 kts 140°
2026-05-05 07:42 7.26114 125.77550 3768 ft 182 kts 161°
2026-05-05 07:42 7.24508 125.77618 3583 ft 172 kts 193°
2026-05-05 07:42 7.23431 125.77143 3359 ft 168 kts 216°
2026-05-05 07:42 7.22850 125.76637 3214 ft 166 kts 228°
2026-05-05 07:43 7.22123 125.75750 3043 ft 160 kts 236°
2026-05-05 07:43 7.21444 125.74887 2888 ft 155 kts 230°
2026-05-05 07:43 7.20731 125.74080 2723 ft 152 kts 230°
2026-05-05 07:43 7.20035 125.73281 2648 ft 152 kts 231°
2026-05-05 07:44 7.19345 125.72471 2596 ft 152 kts 231°
2026-05-05 07:44 7.18659 125.71664 2429 ft 156 kts 231°
2026-05-05 07:44 7.17953 125.70840 2314 ft 156 kts 230°
2026-05-05 07:44 7.17239 125.70012 2082 ft 156 kts 229°
2026-05-05 07:45 7.16526 125.69183 1735 ft 160 kts 229°
2026-05-05 07:45 7.15777 125.68305 1225 ft 169 kts 227°
2026-05-05 07:45 7.15000 125.67408 775 ft 171 kts 226°
2026-05-05 07:45 7.14213 125.66513 373 ft 169 kts 226°
2026-05-05 07:46 7.13473 125.65654 170 ft 158 kts 228°
2026-05-05 07:46 7.12781 125.64865 108 ft 137 kts 229°
2026-05-05 07:46 7.12326 125.64327 107 ft 61 kts 229°
2026-05-05 07:46 7.12151 125.64123 108 ft 34 kts 229°
2026-05-05 07:47 7.12035 125.63987 108 ft 17 kts 229°
2026-05-05 07:47 7.11977 125.63897 108 ft 0 kts 246°
2026-05-05 07:47 7.11965 125.63873 108 ft 6 kts 234°
2026-05-05 07:47 7.11952 125.63873 108 ft 0 kts 164°
2026-05-05 07:48 7.11950 125.63876 107 ft 1 kts 144°
2026-05-05 07:48 7.11949 125.63882 107 ft 1 kts 109°
2026-05-05 07:48 7.11952 125.63888 107 ft 1 kts 72°
2026-05-05 07:48 7.11966 125.63903 108 ft 7 kts 50°
2026-05-05 07:49 7.12015 125.63959 108 ft 14 kts 48°
2026-05-05 07:49 7.12095 125.64049 109 ft 19 kts 48°
2026-05-05 07:49 7.12191 125.64157 106 ft 21 kts 48°
2026-05-05 07:49 7.12290 125.64270 107 ft 23 kts 48°
2026-05-05 07:50 7.12400 125.64395 106 ft 25 kts 49°
2026-05-05 07:50 7.12488 125.64499 106 ft 18 kts 49°
2026-05-05 07:50 7.12558 125.64549 107 ft 11 kts 359°
2026-05-05 07:50 7.12624 125.64508 107 ft 12 kts 320°
2026-05-05 07:51 7.12675 125.64464 107 ft 11 kts 320°
2026-05-05 07:51 7.12701 125.64443 107 ft 0 kts 320°
2026-05-05 07:51 7.12701 125.64442 107 ft 2 kts 324°
2026-05-05 07:51 7.12733 125.64449 107 ft 5 kts 31°
2026-05-05 07:52 7.12763 125.64477 107 ft 8 kts 46°
2026-05-05 07:52 7.12807 125.64524 107 ft 11 kts 47°
2026-05-05 07:52 7.12861 125.64588 107 ft 13 kts 50°
2026-05-05 07:52 7.12892 125.64624 107 ft 0 kts 49°
2026-05-05 07:53 7.12929 125.64649 108 ft 1 kts 356°
2026-05-05 07:54 7.12932 125.64646 108 ft 0 kts 336°
2026-05-05 07:54 7.12966 125.64618 108 ft 7 kts 320°
2026-05-05 07:54 7.12981 125.64605 108 ft 0 kts 320°
2026-05-05 07:55 7.12983 125.64603 108 ft 0 kts 320°
2026-05-05 08:13 7.12982 125.64603 108 ft 0 kts 320°
2026-05-05 08:14 7.12982 125.64604 108 ft 0 kts 320°